Regional Weather Roundup
Issued by NWS

Home | Current Version | Previous Version | Text Only | Print | Product List | Glossary On
Versions: 1 2 3 4 5 6 7 8 9 10 11 12 13 14 15 16 17 18 19 20 21 22 23 24 25 26 27
000
ASUS42 KTBW 110417
RWRFL
FLORIDA REGIONAL WEATHER ROUNDUP
NATIONAL WEATHER SERVICE TAMPA BAY RUSKIN FL
1100 PM EST SUN DEC 10 2017

NOTE: "FAIR" INDICATES FEW OR NO CLOUDS BELOW 12,000 FEET WITH NO
SIGNIFICANT WEATHER AND/OR OBSTRUCTIONS TO VISIBILITY.

FLZ001>010-012>015-112-114-115-110500-
PANHANDLE FLORIDA

CITY           SKY/WX    TMP DP  RH WIND       PRES   REMARKS
PENSACOLA      CLEAR     44  36  73 W5        30.34R WCI  42
PENSACOLA NAS  CLEAR     36  33  89 W3        30.34R
MILTON NAS     CLEAR     36  33  89 W5        30.35R WCI  32
CRESTVIEW      CLEAR     30  28  92 CALM      30.36R
DUKE FIELD     FAIR      40  32  73 W3        30.34R
VALPARAISO     CLEAR     39  32  77 NW7       30.34R WCI  34
MARY ESTHER    CLEAR     39  35  85 NW5       30.32R WCI  35
PANAMA CITY    FAIR      35  32  88 CALM      30.33R
TYNDALL AFB    CLEAR     36  33  88 CALM      30.34R
APALACHICOLA   CLEAR     38  33  82 CALM      30.33S

STATION/POSITION SKY/WX   TEMP    WIND        PRES    WAVE   SWELL
                          AIR SEA DIR/SP/G            HT/PER HT/PER
                          (F)     (DEG/KT/KT) (MB)    (FT/S) (FT/S)
29.2N   88.2W              60 74  270/ 10/ 16 1028.0S   2/ 7   2/ 7
28.8N   86.0W              60 75  290/ 12/ 14 1026.9F   2/ 5   2/ 6
PANAMA CITY BEAC           45 61  350/  7/  8 1027.2R
TOWER C                    53     350/ 11/ 12 1027.5R

$$
FLZ011-016>038-118-127-128-134-139-239-110500-
NORTH FLORIDA

CITY           SKY/WX    TMP DP  RH WIND       PRES   REMARKS
MARIANNA       CLEAR     34  31  88 CALM      30.32S
TALLAHASSEE    CLEAR     32  30  92 CALM      30.32S
PERRY          CLEAR     35  34  96 CALM      30.33S FOG
LIVE OAK       CLEAR     34  34 100 CALM      30.33R FOG
CROSS CITY     CLEAR     31  31  96 CALM      30.37F
LAKE CITY      FAIR      34  32  93 CALM      30.31S
GAINESVILLE    CLEAR     34  32  92 W5        30.34S WCI  30
WILLISTON      CLEAR     36  36 100 CALM      30.33S
PALATKA        FAIR      34  34 100 W5        30.32S WCI  30
MAYPORT NAS    CLEAR     39  35  86 CALM      30.29S
JACKSONVILLE   CLEAR     39  35  86 W3        30.30S
JAX NAS        CLEAR     42  36  79 W6        30.30F WCI  38
JAX CECIL        N/A     32  32 100 MISG      30.30F
ST AUGUSTINE   CLEAR     43  32  65 W5        30.31F WCI  40
PALM COAST     FAIR      37  36  95 CALM      30.31S

STATION/POSITION SKY/WX   TEMP    WIND        PRES    WAVE   SWELL
                          AIR SEA DIR/SP/G            HT/PER HT/PER
                          (F)     (DEG/KT/KT) (MB)    (FT/S) (FT/S)
SHELL POINT      NOT AVBL
KEATON BEACH               44     350/  2/  3 1026.4S
CEDAR KEY                  46     350/  2/  3 1027.0R
FERNANDINA                 44 56  200/  1/  3 1026.9R
30.7N   81.3W                 60                N/A     1/ 9
MAYPORT                    47 60  270/  3/  5 1026.0S
31.4N   80.9W              51 61  260/ 16/ 17 1024.8F   2/ 3   2/ 9
ST AUGUSTINE               45 62  290/  6/  7 1026.3F

$$
FLZ040-043>046-052-053-057-058-063-144-110500-
INTERIOR CENTRAL FLORIDA

CITY           SKY/WX    TMP DP  RH WIND       PRES   REMARKS
OCALA          CLEAR     36  34  92 CALM      30.33R
LEESBURG       CLEAR     47  38  71 NW6       30.33S WCI  44
SANFORD        CLEAR     41  34  76 W6        30.32R WCI  37
ORLANDO EXEC   CLEAR     47  38  71 CALM      30.32R
ORLANDO INTL   CLEAR     39  34  81 W5        30.33S WCI  36
KISSIMMEE      CLEAR     41  37  86 CALM      30.34S
WINTER HAVEN   CLEAR     45  34  65 NW3       30.34S
LAKELAND       CLEAR     37  34  87 CALM      30.33S
BARTOW         FAIR      37  34  87 CALM      30.33S
SEBRING        FAIR      45  35  66 NW3       30.33S

$$
FLZ041-047-054-059-064-141-147-110500-
EAST CENTRAL FLORIDA

CITY           SKY/WX    TMP DP  RH WIND       PRES   REMARKS
DAYTONA BEACH  CLEAR     40  37  89 SW5       30.32R WCI  37
DELAND         CLEAR     39  36  87 W3        30.31S
JFK SPACE CTR  CLEAR     39  39 100 CALM      30.30S
CAPE CANAVERAL CLEAR     36  32  84 CALM      30.29F
PATRICK AFB    CLEAR     50  35  55 NW5       30.30S
MELBOURNE      CLEAR     45  38  76 CALM      30.31S
VERO BEACH     CLEAR     43  39  86 CALM      30.31F
FT PIERCE      CLEAR     40  40 100 CALM      30.31F FOG
STUART         CLEAR     48  41  76 W6        30.31F

STATION/POSITION SKY/WX   TEMP    WIND        PRES    WAVE   SWELL
                          AIR SEA DIR/SP/G            HT/PER HT/PER
                          (F)     (DEG/KT/KT) (MB)    (FT/S) (FT/S)
28.5N   80.2W              58 78  290/  8/ 12 1025.9R   4/ 8   3/ 8
TRIDENT PIER                      330/  2/  3   N/A
28.4N   80.5W                 70                N/A     2/ 8
27.5N   80.2W                 72                N/A     3/ 8

$$
FLZ050-056-061-142-242-148-248-149-249-151-251-155-255-
160-260-110500-
WEST CENTRAL FLORIDA

CITY           SKY/WX    TMP DP  RH WIND       PRES   REMARKS
CRYSTAL RIVER  FAIR      34  34 100 CALM      30.34R
INVERNESS      FAIR      34  34 100 CALM      30.34R
BROOKSVILLE    CLEAR     35  33  92 CALM      30.34R
CLEARWATER AIR FAIR      43  39  87 CALM      30.32S
ST PETE CLEARW CLEAR     46  43  89 CALM      30.32S
TAMPA INTL     CLEAR     49  37  63 CALM      30.33S
TAMPA EXEC     CLEAR     34  34 100 CALM      30.34S
PLANT CITY     CLEAR     39  36  87 CALM      30.34S
MACDILL AFB    CLEAR     44  36  75 NE5       30.32S WCI  41
PETER O KNIGHT   N/A     46  39  76 CALM      30.33S
ST PETERSBURG  CLEAR     54  44  69 N3        30.31S
SARASOTA       CLEAR     45  40  82 E3        30.32R
VENICE         FAIR     N/A N/A N/A NE6       30.34R

STATION/POSITION SKY/WX   TEMP    WIND        PRES    WAVE   SWELL
                          AIR SEA DIR/SP/G            HT/PER HT/PER
                          (F)     (DEG/KT/KT) (MB)    (FT/S) (FT/S)
27.3N   84.2W                 75                N/A     5/ 8
CLEARWATER BEACH           53 62   70/  4/  5 1027.0R
MIDDLE TAMPA BAY           55     350/  7/ 11 1027.0R
VENICE                     49 69   50/  7/  8 1027.2R

$$
FLZ066-069-070-075>078-162-262-165-265-110500-
SOUTHWEST FLORIDA AND KEYS

CITY           SKY/WX    TMP DP  RH WIND       PRES   REMARKS
PUNTA GORDA    CLEAR     45  36  70 N3        30.35S
FT MYERS       CLEAR     50  36  58 N7        30.32S
SOUTHWEST INTL CLEAR     48  38  68 N5        30.33S
NAPLES         CLEAR     48  44  86 CALM      30.32S
MARCO ISLAND   CLEAR     51  40  65 N7        30.33S
IMMOKALEE      FAIR      41  39  93 CALM      30.33S
MARATHON       CLEAR     58  41  53 N12       30.29S
KEY WEST NAS   CLEAR     60  50  69 N10       30.29F
KEY WEST INTL  CLEAR     60  47  61 N10       30.30S

STATION/POSITION SKY/WX   TEMP    WIND        PRES    WAVE   SWELL
                          AIR SEA DIR/SP/G            HT/PER HT/PER
                          (F)     (DEG/KT/KT) (MB)    (FT/S) (FT/S)
NAPLES                        69   40/  3/  4 1026.6F
DRY TORTUGAS               65     360/ 16/ 18 1025.9F
SAND KEY                   61                 1026.3R
MOLASSES REEF              57 77  350/ 18/ 20 1025.1F

$$
FLZ067-068-071>074-168-172>174-110500-
SOUTHEAST FLORIDA

CITY           SKY/WX    TMP DP  RH WIND       PRES   REMARKS
W PALM BEACH   CLEAR     50  38  63 NW9       30.29F
BOCA RATON     PTCLDY   N/A N/A N/A NW9       30.28F
FT LAUDER-EXEC CLEAR     52  40  63 NW3       30.28F
FT LAUDERDALE  PTCLDY    52  41  66 NW9       30.27F
POMPANO BEACH  CLEAR     54  40  59 NW9       30.28F
PEMBROKE PINES CLEAR     52  39  61 NW7       30.30S
OPA LOCKA      CLEAR     53  39  59 N9        30.28S
MIAMI          CLEAR     55  40  56 NW6       30.29S
WEST KENDALL   CLEAR     51  41  68 N8        30.28F
HOMESTEAD      CLEAR     50  43  78 NW8       30.27F

STATION/POSITION SKY/WX   TEMP    WIND        PRES    WAVE   SWELL
                          AIR SEA DIR/SP/G            HT/PER HT/PER
                          (F)     (DEG/KT/KT) (MB)    (FT/S) (FT/S)
PORT EVERGLADES            55     300/ 10/ 14 1024.9S
VIRGINIA KEY               56 73  310/  8/ 13 1024.8S
LAKE WORTH                 53 75  310/  9/ 12 1026.4F
FOWEY ROCKS                57 76  320/ 18/ 19 1025.5F
SETTLEMENT POINT           66      30/ 11/ 13 1024.2F

$$





USA.gov is the U.S. government's official web portal to all federal, state and local government web resources and services.